Location: ????????
(55.1833°N, 39.1333°E)
Time: 13:22:09
(UTC+00:00)

Daily predictions for brighter satellites

Satellite Brightness Start Highest point End
(mag) Time Altitude Azimuth Time Altitude Azimuth Time Altitude Azimuth
Cosmos 2061 Rocket 4.1 16:25:12 10° S 16:31:29 62° E 16:37:51 10° NNE
BREEZE-M DEB (TANK) 4.2 16:29:19 10° SW 16:31:45 31° SSE 16:36:22 10° E
Cosmos 1937 Rocket 3.9 16:28:17 10° NNW 16:33:32 68° WSW 16:38:46 10° SSE
Cosmos 1174 4.3 16:28:30 10° SW 16:33:53 85° SE 16:38:12 10° NE
USA 59 Rocket -0.2 16:30:32 10° NW 16:33:57 72° NE 16:38:28 10° ESE
COSMOS 2428 3.8 16:31:01 10° SSE 16:35:21 23° ESE 16:39:43 10° NE
Cosmos 2233 Rocket 4.0 16:29:24 10° S 16:35:25 61° E 16:41:29 10° NNE
Meteor 2-4 Rocket 4.0 16:30:34 10° NNW 16:36:33 83° WSW 16:42:28 10° S
Cosmos 1707 3.6 16:33:44 10° N 16:36:50 27° ENE 16:39:54 10° SE
Cosmos 1818 4.5 16:33:06 10° S 16:37:38 27° ESE 16:42:11 10° ENE
CSL-04 Debris 4.3 16:32:22 10° SSE 16:37:45 63° ENE 16:43:10 10° NNW
Cosmos 2292 Rocket 4.2 16:33:15 10° NNW 16:37:51 57° W 16:41:24 10° S
Cosmos 1943 Rocket 2.9 16:32:53 10° NNW 16:38:01 37° NE 16:43:08 10° ESE
USA 276 3.1 16:36:09 10° SW 16:38:37 26° S 16:40:57 10° ESE
CZ-4 R/B 1.3 16:35:32 10° SSE 16:39:20 90° ENE 16:43:13 10° NNW
Cosmos 468 Rocket 4.1 16:36:25 10° SSW 16:41:32 85° WNW 16:46:43 10° NNE
Lacrosse 4 Rocket 1.6 16:39:02 10° NW 16:43:24 83° SW 16:47:45 10° SE
ADEOS 4.2 16:39:47 10° S 16:44:57 61° WSW 16:50:09 10° NNW
Cosmos 841 Rocket 3.5 16:41:38 10° S 16:46:44 60° ESE 16:51:50 10° NNE
KORONAS-FOTON 4.2 16:43:14 10° N 16:46:47 42° ENE 16:50:19 10° SE
PAYLOAD B 4.4 16:41:17 10° SSE 16:46:53 88° WSW 16:52:33 10° NNW
Cosmos 1726 1.8 16:45:12 10° SSE 16:47:52 41° E 16:50:35 10° NNE
Cosmos 1356 Rocket 4.1 16:44:03 10° N 16:47:58 37° ENE 16:51:53 10° SE
Cosmos 1536 4.3 16:45:30 10° SE 16:48:02 17° E 16:50:34 10° NE
Tsikada Rocket 4.3 16:43:27 10° NNW 16:49:41 76° W 16:55:59 10° S
NOSS 2-1 (C) 3.2 16:46:55 10° NW 16:50:22 88° SW 16:54:55 10° SE
Cosmos 1328 Rocket 3.5 16:46:34 10° N 16:50:51 64° ENE 16:55:06 10° SSE
Cosmos 1125 Rocket 4.2 16:48:51 10° NNW 16:53:44 39° NE 16:58:18 12° ESE
Cosmos 2278 Rocket 2.4 16:48:10 10° NNW 16:53:47 58° NE 16:59:17 10° SE
SeaSat 1 3.9 16:49:54 10° NNE 16:54:31 41° NW 16:59:07 10° WSW
Terra 3.2 16:51:47 10° ESE 16:55:22 23° NE 16:59:04 10° N
Cosmos 1674 2.3 16:53:56 10° N 16:57:19 75° ENE 17:00:39 10° SSE
Meteor 1-4 Rocket 2.1 16:55:12 10° N 16:57:49 46° ENE 17:00:18 11° SSE
Ariane Rocket 4.5 16:54:30 10° E 16:58:11 21° NE 17:01:56 10° N
Cosmos 540 Rocket 4.2 16:53:47 10° SW 16:58:49 58° WNW 17:03:52 10° NNE
Iridium 4 Rocket 3.1 16:55:34 10° N 16:59:55 83° W 17:04:03 10° S
CZ-4B R/B 3.2 16:54:59 10° SSE 17:00:30 89° WSW 17:05:56 10° NNW
Cosmos 1743 2.4 16:57:15 10° S 17:00:48 73° E 17:04:23 10° NNE
Cosmos 2016 Rocket 4.3 16:55:17 10° SSW 17:01:21 70° WNW 17:07:29 10° N
ERS-1 Rocket 3.9 16:59:44 12° ESE 17:03:45 31° ENE 17:08:08 10° N
TSX-5 3.6 17:01:58 10° NW 17:05:07 59° SW 17:08:13 10° SSE
USA 308 2.7 17:04:36 10° SW 17:05:01 12° SSW 17:05:01 12° SSW
CZ-4B R/B 3.7 17:03:16 10° S 17:06:58 49° W 17:10:51 10° NNW
ATLAS 2AS CENTAUR R/B 3.2 17:00:15 10° WSW 17:07:27 65° NNW 17:14:22 10° NE
Genesis I 2.8 17:06:08 10° SW 17:09:35 82° SE 17:13:07 10° NE
SPOT 5 3.1 17:06:02 11° SE 17:10:20 46° ENE 17:14:40 10° N
CARTOSAT-1 3.9 17:07:01 10° S 17:11:15 69° WSW 17:15:31 10° NNW
USA 290 2.3 17:08:39 10° NNW 17:11:55 60° ENE 17:14:16 17° SE
MOS 1-B 4.4 17:10:28 10° SSE 17:16:17 86° WSW 17:22:07 10° NNW
Cosmos 2360 Rocket 2.6 17:12:51 10° SW 17:18:29 68° NW 17:24:08 10° NNE
Okean 3 Rocket 4.1 17:15:09 10° SSE 17:19:18 39° E 17:23:28 10° NNE
Okean O Rocket 1.6 17:17:55 10° SSE 17:22:22 87° WSW 17:26:50 10° NNW
NOSS 2-1 (E) 3.9 17:22:51 10° WNW 17:26:23 54° SW 17:30:05 15° SSE
Resurs 01 Rocket 2.5 17:22:36 10° S 17:26:55 51° W 17:31:15 10° NNW
Cosmos 2237 Rocket 3.2 17:23:14 11° SSE 17:27:13 23° ESE 17:31:34 10° NE
Cosmos 2322 Rocket 3.1 17:21:51 10° SW 17:27:27 53° NW 17:33:03 10° NNE
ACS3 Solar Sail 1.9 17:21:10 10° SSE 17:27:35 84° ENE 17:34:01 10° NNW
Cosmos 1340 3.3 17:26:09 10° SSW 17:29:21 48° WNW 17:32:33 10° N
IKONOS-2 4.4 17:25:20 10° NNE 17:29:28 61° ESE 17:33:34 10° S
USA 186 3.6 17:27:54 10° SSW 17:30:50 32° W 17:33:48 10° NNW
Helios 1A 3.9 17:27:03 10° N 17:31:01 50° WNW 17:34:56 10° SW
MOS 1 Rocket 3.7 17:27:39 17° SE 17:31:26 54° ENE 17:36:33 10° N
Cosmos 1814 Rocket 4.1 17:27:48 10° S 17:32:56 52° ESE 17:38:03 10° NE
Cosmos 2333 Rocket 2.9 17:29:30 10° SW 17:35:12 59° NW 17:40:56 10° NNE
NOSS 2-1 (D) 4.2 17:32:58 10° WNW 17:36:25 43° SW 17:39:51 16° SSE
Cosmos 1515 Rocket 3.4 17:32:27 10° N 17:36:49 84° E 17:40:28 14° SSE
Cosmos 2344 4.4 17:31:07 10° W 17:38:09 49° N 17:46:18 10° ENE
Okean-O 2.5 17:34:45 15° SSE 17:38:25 82° ENE 17:42:51 10° NNW
Cosmos 2219 Rocket 2.3 17:33:40 10° SW 17:39:22 81° NW 17:45:06 10° NNE
BlueWalker 3 3.1 17:36:12 10° W 17:39:32 31° SSW 17:41:17 20° SSE
MetOp-B 4.1 17:36:23 15° SSE 17:40:54 76° ENE 17:46:17 10° NNW
CSL-04 Rocket 4.5 17:37:52 10° S 17:43:05 51° W 17:48:18 10° NNW
Sich 1 3.8 17:43:47 26° ESE 17:44:57 30° E 17:48:43 10° NNE
USA 245 3.6 17:45:40 23° NE 17:45:40 23° NE 17:47:10 10° N
USA 267 3.3 17:41:40 19° ESE 17:46:36 87° SSW 17:53:12 10° WNW
Cosmos 1805 4.2 17:46:41 25° E 17:46:41 25° E 17:49:42 10° NNE
SL-16 R/B 4.0 17:42:44 10° W 17:47:51 33° NW 17:52:59 10° NNE
CZ-4C R/B 4.5 17:45:59 10° NE 17:48:49 23° E 17:48:49 23° E
Cosmos 1842 4.1 17:46:27 10° NNW 17:49:55 44° W 17:53:23 10° SSW
Cosmos 2369 Rocket 3.3 17:49:37 10° NNW 17:54:49 34° NE 17:58:08 19° E
Cosmos 1980 4.2 17:50:27 10° S 17:55:37 37° ESE 18:00:49 10° NE
Meteor 1-13 Rocket 4.3 17:49:49 10° NNW 17:55:48 87° WSW 18:00:34 16° S
IRS-1C Rocket 4.1 17:52:38 22° SSE 17:56:06 74° ENE 18:01:23 10° NNW
DELTA 2 DEB (DPAF) 4.0 17:52:31 10° NNE 17:56:40 58° ESE 17:59:32 19° S
Cosmos 1766 Rocket 4.1 17:52:47 10° SSW 17:57:05 59° WNW 18:01:27 10° N
Cosmos 2298 Rocket 4.2 17:53:22 10° NNW 17:58:38 61° ENE 18:01:17 29° SE
Cosmos 1500 Rocket 3.9 17:57:22 30° SE 17:59:00 43° E 18:03:09 10° NNE
Cosmos 2322 3.6 17:54:16 10° SSW 17:59:55 87° ESE 18:05:38 10° NE
USA 32 4.0 17:54:47 10° N 18:00:03 69° E 18:03:12 24° SSE
Cosmos 1428 Rocket 4.4 17:56:32 10° N 18:02:41 80° ENE 18:06:58 21° SSE
SWARM A 4.4 18:00:33 20° S 18:02:54 79° W 18:06:27 10° N
Cosmos 1743 Rocket 4.1 18:02:36 34° ESE 18:03:23 37° E 18:07:22 10° NNE
Cosmos 2150 Rocket 4.0 17:58:41 10° NNW 18:03:52 65° ENE 18:06:16 31° SE
Spot 2 Rocket 3.5 18:01:44 29° SE 18:04:14 62° ENE 18:09:13 10° N
In-Cosmos 22 4.5 18:01:06 10° NNW 18:06:52 71° W 18:11:29 16° S
NOSS 3-4 (A) 4.0 18:02:11 10° NW 18:08:28 60° NNE 18:13:10 23° E
NOSS 3-4 (C) 4.0 18:02:17 10° NW 18:08:34 59° NNE 18:13:16 23° E
Meteor 2-10 4.1 18:03:51 10° S 18:09:23 74° E 18:15:05 10° NNE
Cosmos 1315 Rocket 2.8 18:07:24 10° NNW 18:11:22 79° WSW 18:13:04 33° S
Cosmos 1707 4.2 18:08:27 10° NNW 18:11:39 31° W 18:14:39 11° SSW
USA 276 3.8 18:09:57 10° WSW 18:11:16 19° SW 18:11:16 19° SW
Cosmos 1570 Rocket 4.2 18:09:36 23° SSE 18:12:30 46° ESE 18:17:31 10° NE
CZ-4 R/B 4.3 18:12:57 10° WSW 18:14:30 12° W 18:16:03 10° WNW
Nadezhda 4 Rocket 4.3 18:09:16 10° NNW 18:15:28 68° W 18:21:01 13° S
Cosmos 2195 Rocket 4.4 18:09:21 10° N 18:15:32 86° E 18:19:24 24° SSE
Cosmos 1408 Rocket 3.4 18:13:30 24° S 18:16:05 78° E 18:20:30 10° NNE
Cosmos 1733 3.0 18:15:43 26° SSW 18:17:31 74° WNW 18:20:59 10° N
Cosmos 1092 Rocket 4.0 18:11:16 10° N 18:17:36 77° ENE 18:21:13 28° SSE
Meteor 1-23 Rocket 4.2 18:12:20 10° NNW 18:17:59 88° ENE 18:21:06 28° SSE
COSMOS 2428 2.7 18:13:14 10° SW 18:18:57 85° WNW 18:24:45 10° NNE
Cosmos 1818 3.6 18:15:13 10° SW 18:20:43 82° NW 18:26:15 10° NE
Lacrosse 4 Rocket 4.0 18:18:26 10° WNW 18:20:58 15° WSW 18:23:30 10° SW
Cosmos 1943 Rocket 2.5 18:16:38 10° NW 18:22:04 60° WSW 18:24:57 27° S
Cosmos 1975 3.5 18:22:48 35° ENE 18:22:48 35° ENE 18:25:55 10° NNE
USA 59 Rocket 1.8 18:20:10 10° WNW 18:23:18 23° SW 18:25:31 17° SSW
Cosmos 1536 3.3 18:20:01 12° SSW 18:23:31 57° WNW 18:27:18 10° N
SL-16 R/B 3.7 18:25:29 19° E 18:25:29 19° E 18:28:03 10° NE
Cosmos 2026 Rocket 3.9 18:18:10 10° N 18:24:31 86° E 18:27:59 28° SSE
OPS 6432 4.1 18:24:03 10° NW 18:27:20 86° N 18:27:20 86° N
Cosmos 1464 Rocket 4.3 18:22:54 10° SSW 18:29:11 70° WNW 18:35:35 10° N
Okean 1-7 4.1 18:28:37 10° N 18:32:27 30° ENE 18:32:39 30° ENE
Terra 1.9 18:30:28 33° S 18:32:33 71° WSW 18:37:17 10° NNW
SL-14 R/B 3.2 18:29:25 10° NNW 18:33:13 76° W 18:33:54 56° SSW
Meteor 1-11 Rocket 3.7 18:27:42 10° SSW 18:33:22 81° WNW 18:38:58 10° NNE
CRYOSAT 2 4.4 18:29:14 10° N 18:34:09 80° W 18:36:55 26° SSW
Cosmos 158 Rocket 3.8 18:33:42 43° SSE 18:34:56 57° ESE 18:39:44 10° NNE
Cosmos 1634 Rocket 4.1 18:32:27 33° SSE 18:35:09 58° E 18:41:21 10° NNE
Cosmos 1125 Rocket 4.2 18:30:56 10° NW 18:35:54 47° WSW 18:38:31 25° SSW
Ariane Rocket 2.9 18:34:38 40° SSE 18:36:31 89° WSW 18:41:38 10° NNW
Cosmos 2278 Rocket 3.4 18:32:33 10° NW 18:37:40 35° WSW 18:41:07 18° SSW
SPOT 3 Rocket 3.5 18:36:39 40° SSE 18:38:34 89° W 18:43:45 10° NNW
Cosmos 1805 Rocket 3.4 18:37:25 46° S 18:38:41 85° E 18:43:02 10° NNE
ERS-1 Rocket 3.5 18:39:39 26° SSW 18:42:17 54° W 18:47:15 10° NNW
Meteor 2-9 Rocket 4.1 18:38:56 17° SSW 18:43:10 79° WNW 18:48:38 10° NNE
Cosmos 1862 Rocket 3.5 18:42:10 10° N 18:46:32 65° ENE 18:46:56 61° ESE
Cosmos 2034 Rocket 4.1 18:41:54 11° SSW 18:47:52 73° WNW 18:54:05 10° N
Okean 3 3.4 18:44:03 10° N 18:48:11 62° ENE 18:48:15 62° E
SPOT 5 4.3 18:45:10 14° SSW 18:48:31 30° W 18:52:33 10° NNW
Celestis-02/Orion 38 4.4 18:45:42 10° NE 18:50:51 67° ESE 18:52:45 38° S
Cosmos 1707 Rocket 3.4 18:47:22 10° N 18:51:52 81° E 18:52:21 69° SE
USA 215 3.4 18:45:55 10° ENE 18:52:11 46° SE 18:58:25 10° SSW
Cosmos 1633 Rocket 4.0 18:53:17 35° ENE 18:53:17 35° ENE 18:56:32 10° NNE
Cosmos 2208 Rocket 3.9 18:55:24 43° S 18:57:08 74° ESE 19:02:28 10° NNE
NOSS 0 Rocket 4.0 18:51:18 10° SW 18:57:34 80° NW 19:03:52 10° NE
MetOp-A 3.8 18:58:35 58° E 18:58:53 59° ENE 19:03:34 10° N
Okean O Rocket 4.3 18:56:51 10° WSW 18:59:19 14° W 19:01:46 10° NW
ATLAS 2AS CENTAUR R/B 3.8 18:52:43 10° WNW 18:59:27 42° N 19:05:55 10° ENE
Cosmos 1666 Rocket 4.0 19:00:46 49° ENE 19:00:46 49° ENE 19:04:28 10° NNE
Landsat 4 4.4 19:01:44 42° NNE 19:01:44 42° NNE 19:04:13 10° N
Cosmos 2360 Rocket 4.5 18:58:56 10° W 19:03:30 24° NNW 19:08:04 10° NNE
Cosmos 1656 Rocket 3.6 18:58:00 10° NNW 19:03:44 89° ENE 19:05:00 56° SE
Cosmos 773 Rocket 4.1 19:06:05 54° E 19:06:05 54° E 19:11:03 10° NE
Cosmos 2228 Rocket 3.2 19:03:59 10° NNW 19:08:32 70° W 19:09:07 62° SW
Aureole 3 Rocket 4.4 19:02:30 10° SSW 19:09:40 60° WNW 19:14:47 10° N
Cosmos 2237 Rocket 2.2 19:05:03 10° SW 19:10:41 82° NW 19:16:22 10° NNE
Cosmos 2297 3.6 19:05:08 10° NW 19:10:49 90° NE 19:11:54 60° SSE
ACS3 Solar Sail 3.8 19:07:21 10° SW 19:12:26 24° W 19:17:32 10° NNW
Cosmos 1441 Rocket 4.2 19:13:49 37° NNE 19:13:49 37° NNE 19:16:06 10° NNE
ARIANE 5 R/B 3.3 19:19:16 43° NE 19:19:16 43° NE 19:23:05 10° N
Cosmos 1805 4.5 19:21:00 32° W 19:21:34 34° WNW 19:24:59 10° N
NOSS 3-3 (C) 3.9 19:22:06 54° ESE 19:22:06 54° ESE 19:28:03 10° NE
Sich 1 4.3 19:20:26 26° WSW 19:22:15 38° WNW 19:26:19 10° N
CZ-4C R/B 4.2 19:19:31 10° N 19:23:06 44° WNW 19:23:38 41° W
Cosmos 2279 Rocket 3.9 19:22:18 52° S 19:23:59 83° E 19:30:15 10° NNE
Cosmos 2219 Rocket 4.3 19:19:22 10° W 19:24:10 27° NNW 19:28:59 10° NNE
USA 267 3.6 19:29:00 42° SSW 19:30:03 46° SW 19:36:20 10° WNW
NOSS 3-3 (A) 3.7 19:38:26 69° SSE 19:38:45 70° SE 19:45:22 10° NE
Cosmos 2369 Rocket 2.1 19:33:37 10° NW 19:39:21 73° WSW 19:39:53 68° SSW
Cosmos 1980 4.3 19:33:57 10° SW 19:39:32 56° NW 19:45:10 10° NNE
Okean 2 4.1 19:38:28 10° NNW 19:41:41 48° NW 19:41:41 48° NW
SL-08 ROCKET BODY 4.4 19:42:41 10° NNW 19:48:55 81° W 19:49:53 65° SSW
Cosmos 192 4.4 19:44:18 10° NNW 19:48:53 69° W 19:48:53 69° W
Cosmos 2344 4.1 19:46:23 10° NW 19:53:55 63° NNE 20:00:25 22° ESE
ATLAS CENTAUR R/B 4.0 20:01:59 11° NE 20:01:59 11° NE 20:02:12 10° NE
NOSS 3-4 (A) 3.9 19:53:02 10° NW 19:59:34 60° SW 20:00:35 55° SSW
NOSS 3-4 (C) 3.9 19:53:08 10° NW 19:59:41 60° SW 20:00:41 55° SSW
Cosmos 1607 4.0 20:00:25 62° ESE 20:00:25 62° ESE 20:06:19 10° NE
Cosmos 1943 Rocket 4.5 20:02:28 10° WNW 20:04:41 12° W 20:06:27 11° WSW
RESURS DK-1 4.5 20:03:06 10° NNW 20:06:12 20° NNE 20:06:43 20° NE
SL-16 R/B 2.1 20:07:18 89° S 20:07:20 89° ESE 20:13:03 10° NE
ASTEX 1 3.5 20:09:36 69° N 20:09:36 69° N 20:13:56 10° N
Okean 1-7 4.2 20:05:46 10° NNW 20:09:11 37° WNW 20:09:11 37° WNW
Cosmos 2266 Rocket 4.2 20:03:54 10° NNW 20:10:00 61° W 20:10:56 54° SW
Meteor 2-5 Rocket 3.8 20:04:35 10° NNW 20:10:33 68° ENE 20:10:47 68° E
Terra 4.3 20:09:10 10° WSW 20:11:00 12° W 20:13:00 10° WNW
Cosmos 2056 Rocket 4.1 20:10:03 10° NNW 20:15:07 48° NE 20:15:12 48° ENE
ALOS 2 3.4 20:25:26 48° N 20:25:26 48° N 20:28:43 10° NNW
Meteor 1-22 Rocket 4.5 20:30:04 59° ENE 20:30:04 59° ENE 20:35:02 10° NNE
Cosmos 1655 Rocket 4.1 20:24:09 10° NNW 20:30:27 64° W 20:31:03 61° WSW
Meteor 1-24 Rocket 3.7 20:26:33 10° NNW 20:32:37 88° WSW 20:32:37 88° WSW
H-2A R/B 3.6 20:34:25 41° N 20:34:25 41° N 20:37:15 10° NNW
Cosmos 1943 3.8 20:34:42 45° ENE 20:34:42 45° ENE 20:38:52 10° NE
Nadezhda 2 Rocket 4.4 20:29:02 10° N 20:35:26 77° ENE 20:35:46 75° ESE
USA 215 3.1 20:29:04 10° ENE 20:35:40 87° SSE 20:42:14 10° WSW
Cosmos 1244 Rocket 4.3 20:37:20 10° NNW 20:43:34 89° ENE 20:43:41 87° SSE
Cosmos 1553 Rocket 4.2 20:45:06 56° E 20:45:06 56° E 20:51:07 10° NNE
Cosmos 1538 Rocket 4.3 20:49:11 64° NE 20:49:11 64° NE 20:53:43 10° NNE
Cosmos 1697 Rocket 4.1 20:44:21 10° NNW 20:49:28 34° NE 20:51:36 26° ENE
Cosmos 1420 Rocket 4.3 20:44:27 10° NNW 20:48:48 63° NNW 20:48:48 63° NNW
ATLAS 2AS CENTAUR R/B 3.3 20:44:48 10° NW 20:51:38 52° NNE 20:56:21 19° E
Meteor 2-10 Rocket 3.8 20:54:31 66° NNE 20:54:31 66° NNE 20:59:11 10° NNE
ARIANE 5 R/B 4.4 20:56:43 25° WNW 20:56:43 25° WNW 20:59:18 10° NNW
Cosmos 2237 Rocket 4.1 20:50:48 10° W 20:55:34 27° NNW 21:00:21 10° NNE
Cosmos 1656 3.9 20:54:25 10° NNW 21:00:07 64° NE 21:00:10 64° NE
Cosmos 724 4.5 21:11:49 62° WNW 21:12:20 66° NW 21:18:09 10° NE
NOSS 3-3 (C) 4.5 21:09:29 28° W 21:12:38 57° NNW 21:19:36 10° NE
Cosmos 1680 Rocket 4.4 21:14:38 42° ENE 21:14:38 42° ENE 21:18:29 10° NE
Cosmos 2369 Rocket 4.2 21:18:59 10° WNW 21:21:39 16° W 21:21:39 16° W
Meteor 1-12 Rocket 4.3 21:26:29 73° NW 21:26:29 73° NW 21:31:48 10° NNE
Cosmos 1953 4.3 21:30:32 26° NNE 21:30:32 26° NNE 21:32:23 10° NNE
H-2A R/B 3.8 21:26:09 10° NNE 21:28:45 28° ENE 21:28:45 28° ENE
ATLAS CENTAUR R/B 3.3 21:36:42 25° N 21:36:42 25° N 21:39:38 10° NE
S3M 4.0 21:37:10 69° E 21:37:10 69° E 21:43:15 10° NNE
SL-19 R/B 4.3 21:37:17 10° NNE 21:42:36 79° NE 21:42:36 79° NE
RESURS DK-1 4.3 21:40:24 10° NW 21:42:14 25° NNW 21:42:14 25° NNW
Cosmos 1745 Rocket 4.0 21:38:20 10° NNW 21:44:30 70° W 21:44:30 70° W
Cosmos 1980 Rocket 3.3 21:42:16 10° NNW 21:47:33 39° NE 21:50:14 25° E
SL-16 R/B 3.8 21:49:08 19° W 21:52:10 29° NW 21:57:07 10° NNE
Cosmos 1452 Rocket 3.8 21:48:12 10° NNW 21:52:48 66° N 21:52:48 66° N
Cosmos 2112 Rocket 4.2 21:56:51 68° NNE 21:56:51 68° NNE 22:01:31 10° NNE
Cosmos 1331 Rocket 4.3 21:52:17 10° NNW 21:56:50 66° NNW 21:56:50 66° NNW
CZ-3B R/B 3.4 21:40:00 10° WNW 21:58:01 72° SSW 21:58:53 65° SSE
CZ-2C R/B 3.7 21:59:29 34° E 22:00:34 37° ENE 22:05:19 10° N
IDEFIX/ARIANE 42P 4.4 21:57:46 10° NE 22:01:39 20° E 22:02:12 20° E
Cosmos 2360 4.3 21:56:25 10° NW 22:01:27 68° NW 22:01:27 68° NW
Cosmos 1603 3.9 22:04:06 64° WNW 22:04:12 64° NW 22:09:51 10° NNE
USA 281 3.9 22:01:01 19° ESE 22:05:29 50° NE 22:11:47 10° NNW
Cosmos 1417 Rocket 4.5 22:07:36 68° W 22:07:54 70° WNW 22:14:16 10° N
In-Cosmos 22 Rocket 4.2 22:02:45 10° NNW 22:08:00 77° NW 22:08:00 77° NW
Cosmos 2344 4.0 22:00:40 10° NW 22:08:34 60° SW 22:10:20 53° SSW
Cosmos 2315 Rocket 3.8 22:09:52 79° SE 22:10:08 81° E 22:16:22 10° NNE
Cosmos 1110 Rocket 4.5 22:06:06 10° NNW 22:10:07 53° NW 22:10:07 53° NW
Cosmos 883 Rocket 4.3 22:11:20 85° SSE 22:11:31 88° E 22:17:41 10° NNE
Meteor 1-16 Rocket 4.4 22:14:29 58° NW 22:14:29 58° NW 22:19:22 10° N
Cosmos 1943 4.1 22:16:28 36° WNW 22:17:37 40° NW 22:22:58 10° NNE
USA 215 3.3 22:12:08 10° E 22:18:42 77° N 22:25:15 10° W
Cosmos 2154 Rocket 4.5 22:14:38 10° N 22:20:44 55° ENE 22:22:22 43° ESE
Cosmos 1908 Rocket 4.4 22:22:57 49° N 22:22:57 49° N 22:26:18 10° N
Cosmos 1833 Rocket 3.4 22:24:24 41° ESE 22:24:24 41° ESE 22:29:31 10° NE
ARIANE 6 FM1 Upper Stage 3.8 22:26:27 42° NE 22:26:27 42° NE 22:29:27 10° NE
Resurs 1-4 Rocket 3.8 22:24:08 10° NE 22:28:15 23° E 22:29:27 21° ESE
Cosmos 921 Rocket 3.8 22:34:26 51° NNE 22:34:26 51° NNE 22:37:47 10° NNE
Cosmos 1709 Rocket 4.4 22:27:47 10° NNW 22:33:49 47° W 22:33:49 47° W
Cosmos 1697 Rocket 2.8 22:28:18 10° NW 22:33:15 65° WNW 22:33:15 65° WNW
Cosmos 1782 Rocket 4.1 22:38:46 56° N 22:38:46 56° N 22:42:18 10° NNE
Cosmos 494 Rocket 4.0 22:39:30 77° NNW 22:39:30 77° NNW 22:44:30 10° NNE
ATLAS 2AS CENTAUR R/B 2.5 22:36:03 10° NW 22:42:55 72° SW 22:43:40 66° S
Cosmos 2322 Rocket 4.3 22:40:19 10° NNW 22:45:06 26° NNE 22:49:52 10° E
Cosmos 2074 Rocket 3.8 22:44:41 10° NNW 22:50:57 85° W 22:51:48 68° S
Cosmos 1992 Rocket 4.3 22:46:52 10° NNW 22:52:05 64° ENE 22:53:23 48° ESE
Cosmos 2369 3.9 22:47:16 10° NNW 22:52:58 68° NE 22:55:38 32° SE
COBE Rocket 4.1 22:48:37 10° N 22:52:58 58° NW 22:52:58 58° NW
Cosmos 2333 Rocket 4.3 22:48:39 10° NNW 22:53:28 26° NNE 22:58:14 10° E
Cosmos 2082 Rocket 3.8 22:55:04 22° SE 22:56:27 24° ESE 23:00:50 10° NE
Nimbus 7 Rocket 4.3 22:58:34 10° NNE 23:04:26 70° WNW 23:05:15 61° WSW
Cosmos 1953 4.4 23:05:32 18° NW 23:05:32 18° NW 23:07:29 10° NNW
CZ-2D R/B 3.2 22:59:42 10° NNE 23:04:50 39° E 23:06:27 32° SE
SL-16 R/B 3.5 23:00:27 10° NNW 23:05:48 40° NE 23:11:07 10° ESE
SL-16 R/B 3.4 22:59:53 10° SE 23:05:48 48° ENE 23:11:46 10° NNW
H-2A R/B 3.2 23:01:50 10° N 23:05:28 36° NW 23:05:28 36° NW
Cosmos 1271 Rocket 4.1 23:05:29 10° N 23:08:43 31° ENE 23:08:52 31° ENE
Cosmos 521 Rocket 4.4 23:07:23 10° NW 23:13:51 63° SW 23:14:50 56° SSW
Cosmos 468 4.4 23:13:37 75° SW 23:14:02 83° WNW 23:19:24 10° NNE
Cosmos 1461 4.4 23:15:28 24° E 23:15:28 24° E 23:17:50 10° ENE
ATLAS CENTAUR R/B 3.7 23:11:48 10° NW 23:14:48 21° N 23:17:54 10° NE
CZ-4C R/B 3.5 23:15:18 21° SE 23:16:05 22° ESE 23:20:15 10° ENE
Lacrosse 5 3.9 23:18:50 16° SE 23:19:06 16° SE 23:22:09 10° E
SeaSat 1 3.6 23:14:40 10° ESE 23:19:18 42° NE 23:23:55 10° NNW
Geosat 4.0 23:20:09 10° NE 23:25:10 66° ESE 23:25:50 59° SSE
Cosmos 1375 Rocket 4.5 23:19:57 10° NW 23:26:34 89° NE 23:33:03 10° SE
Cosmos 2341 Rocket 4.3 23:20:30 10° N 23:26:45 65° ENE 23:30:56 21° SSE
ADEOS II 3.0 23:22:47 10° NNE 23:27:44 41° E 23:29:51 28° SE
Cosmos 2184 Rocket 4.2 23:22:09 10° NNW 23:28:13 52° W 23:29:04 49° WSW
Cosmos 1980 Rocket 2.1 23:26:19 10° NW 23:31:48 58° WSW 23:31:54 58° WSW
Cosmos 1818 4.4 23:29:07 10° NW 23:34:29 51° NNE 23:39:49 10° ESE
Helios 1A Rocket 4.5 23:37:35 23° NW 23:37:35 23° NW 23:39:18 10° NNW
Cosmos 962 Rocket 4.5 23:29:25 10° N 23:35:50 86° E 23:39:09 31° SSE
Cosmos 2218 Rocket 4.4 23:29:38 10° N 23:35:58 62° ENE 23:41:36 13° SSE
Cosmos 2327 Rocket 4.3 23:31:57 10° NNW 23:38:08 80° W 23:40:19 42° S
Gbstr 26 Del rocket 4.2 23:37:52 44° S 23:38:51 48° SSE 23:44:18 10° E
CZ-2C R/B 2.9 23:40:58 45° W 23:40:58 45° W 23:45:47 10° NNW
IDEFIX/ARIANE 42P 2.5 23:36:32 10° NNE 23:41:48 82° WNW 23:42:56 56° SSW
Cosmos 2098 Rocket 3.1 23:46:28 50° NNE 23:46:28 50° NNE 23:49:09 10° NNE
ALOS 3.4 23:41:35 10° NNE 23:45:54 38° E 23:48:04 24° SSE
Nadezhda 1 Rocket 3.9 23:46:12 45° SSW 23:48:13 78° WNW 23:54:30 10° N
Cosmos 1536 Rocket 3.9 23:44:29 10° NNW 23:48:26 49° WNW 23:48:26 49° WNW
USA 281 3.3 23:47:52 39° SSW 23:50:00 53° WSW 23:56:27 10° NW
Sich 1 Rocket 3.5 23:50:19 63° SSW 23:51:02 87° W 23:55:40 10° NNE
